Hollywood, FL

11:23 AM EST on February 06, 2016 (GMT -0500)
North Perry

Weather History for KHWO - March, 2013

Change the Weather History Date:

Wednesday, March 6, 2013

  Actual Average (KFLL) Record (KFLL)
Temperature  
Mean Temperature 66 °F 72 °F  
Max Temperature 78 °F 79 °F 91 °F (1964)
Min Temperature 53 °F 65 °F 41 °F (1960)
Degree Days  
Heating Degree Days 0 1  
Month to date heating degree days 6  
Since 1 July heating degree days 108  
Cooling Degree Days 1 8  
Month to date cooling degree days 44  
Year to date cooling degree days 400  
Growing Degree Days 16 (Base 50)    
Moisture  
Dew Point 50 °F    
Average Humidity 61    
Maximum Humidity 87    
Minimum Humidity 27    
Precipitation  
Precipitation 0.00 in 0.11 in 3.34 in (2008)
Month to date precipitation 0.52  
Year to date precipitation 7.11  
Snow  
Snow 0.00 in - - ()
Month to date snowfall  
Since 1 July snowfall  
Snow Depth -    
Sea Level Pressure  
Sea Level Pressure 30.07 in    
Wind  
Wind Speed 10 mph (West)    
Max Wind Speed 25 mph    
Max Gust Speed 31 mph    
Visibility 10 miles    
Events      
T = Trace of Precipitation, MM = Missing Value Source: NWS Daily Summary

Daily Weather History Graph

Daily Weather History Graph

Search for Another Location

Airport or City:

Trip Planner

Search our weather history database for the weather conditions in past years. The results will help you decide how hot, cold, wet, or windy it might be!

Date:

Astronomy

Mar. 06, 2013 Rise Set
Actual Time 6:39 AM EST 6:25 PM EST
Civil Twilight 6:16 AM EST 6:48 PM EST
Nautical Twilight 5:49 AM EST 7:15 PM EST
Astronomical Twilight 5:22 AM EST 7:41 PM EST
Moon 2:23 AM EST 1:28 PM EST
Length of Visible Light 12h 32m
Length of Day
11h 46m
Waning Crescent, 30% of the Moon is Illuminated
Mar 6
Waning Crescent
Mar 11
New
Mar 19
First Quarter
Mar 27
Full
Apr 3
Last Quarter

Hourly Weather History & Observations

Time (EST) Temp. Dew Point Humidity Pressure Visibility Wind Dir Wind Speed Gust Speed Precip Events Conditions
12:53 AM 61.0 °F 54.0 °F 78% 30.12 in 10.0 mi West 4.6 mph - N/A   Clear
1:53 AM 60.1 °F 54.0 °F 80% 30.10 in 10.0 mi West 5.8 mph - N/A   Clear
2:53 AM 57.9 °F 54.0 °F 87% 30.07 in 10.0 mi SW 3.5 mph - N/A   Clear
3:53 AM 57.9 °F 53.1 °F 84% 30.05 in 10.0 mi SW 4.6 mph - N/A   Clear
4:53 AM 57.0 °F 53.1 °F 87% 30.06 in 10.0 mi SW 4.6 mph - N/A   Clear
5:53 AM 57.9 °F 54.0 °F 87% 30.08 in 10.0 mi WSW 4.6 mph - N/A   Clear
6:53 AM 57.9 °F 54.0 °F 87% 30.09 in 10.0 mi SW 6.9 mph - N/A   Clear
7:53 AM 64.0 °F 57.9 °F 80% 30.10 in 10.0 mi SW 8.1 mph - N/A   Clear
8:53 AM 69.1 °F 57.9 °F 68% 30.10 in 10.0 mi WSW 13.8 mph - N/A   Clear
9:53 AM 72.0 °F 57.0 °F 59% 30.10 in 10.0 mi WSW 16.1 mph - N/A   Clear
10:53 AM 75.0 °F 57.9 °F 55% 30.10 in 10.0 mi WSW 15.0 mph 21.9 mph N/A   Scattered Clouds
11:53 AM 75.0 °F 59.0 °F 57% 30.08 in 10.0 mi West 13.8 mph 21.9 mph N/A   Mostly Cloudy
12:53 PM 73.0 °F 61.0 °F 66% 30.06 in 10.0 mi WNW 18.4 mph 23.0 mph N/A   Overcast
1:53 PM 73.9 °F 62.1 °F 66% 30.03 in 10.0 mi West 15.0 mph 24.2 mph N/A   Mostly Cloudy
2:53 PM 77.0 °F 57.0 °F 50% 30.01 in 10.0 mi West 18.4 mph 25.3 mph N/A   Partly Cloudy
3:53 PM 78.1 °F 50.0 °F 37% 29.99 in 10.0 mi West 25.3 mph 31.1 mph N/A   Clear
4:53 PM 78.1 °F 50.0 °F 37% 29.99 in 10.0 mi West 16.1 mph 26.5 mph N/A   Clear
5:53 PM 73.9 °F 44.1 °F 34% 30.01 in 10.0 mi WNW 18.4 mph 27.6 mph N/A   Clear
6:53 PM 68.0 °F 33.1 °F 27% 30.04 in 10.0 mi West 15.0 mph 21.9 mph N/A   Clear
7:53 PM 64.0 °F 30.9 °F 29% 30.07 in 10.0 mi WNW 17.3 mph - N/A   Clear
8:53 PM 60.1 °F 39.0 °F 46% 30.09 in 10.0 mi WNW 13.8 mph 18.4 mph N/A   Clear
9:53 PM 57.0 °F 39.0 °F 51% 30.11 in 10.0 mi WNW 15.0 mph - N/A   Clear
10:53 PM 54.0 °F 37.9 °F 55% 30.13 in 10.0 mi WNW 12.7 mph - N/A   Clear
11:53 PM 53.1 °F 37.0 °F 55% 30.13 in 10.0 mi WNW 12.7 mph 24.2 mph N/A   Clear